TimeCST,TemperatureF,Dew PointF,Humidity,Sea Level PressureIn,VisibilityMPH,Wind Direction,Wind SpeedMPH,Gust SpeedMPH,PrecipitationIn,Events,Conditions,WindDirDegrees,DateUTC
12:53 AM,26.1,16.0,66,30.23,10.0,SE,3.5,-,N/A,,Clear,140,2012-12-05 06:53:00
1:53 AM,30.0,18.0,61,30.21,10.0,ESE,5.8,-,N/A,,Clear,120,2012-12-05 07:53:00
2:53 AM,27.0,19.0,72,30.20,10.0,ESE,5.8,-,N/A,,Clear,110,2012-12-05 08:53:00
3:53 AM,30.0,18.0,61,30.19,10.0,SE,5.8,-,N/A,,Clear,130,2012-12-05 09:53:00
4:53 AM,28.0,18.0,66,30.18,10.0,SE,5.8,-,N/A,,Clear,130,2012-12-05 10:53:00
5:53 AM,30.0,18.0,61,30.17,10.0,East,4.6,-,N/A,,Clear,90,2012-12-05 11:53:00
6:53 AM,36.0,17.1,46,30.13,10.0,South,12.7,-,N/A,,Clear,190,2012-12-05 12:53:00
8:53 AM,39.9,16.0,38,30.12,10.0,South,10.4,-,N/A,,Clear,180,2012-12-05 14:53:00
9:53 AM,41.0,17.1,38,30.08,10.0,South,12.7,-,N/A,,Clear,180,2012-12-05 15:53:00
10:53 AM,46.9,19.0,33,30.06,10.0,South,16.1,-,N/A,,Clear,190,2012-12-05 16:53:00
11:53 AM,51.1,21.0,31,30.01,10.0,South,11.5,20.7,N/A,,Clear,180,2012-12-05 17:53:00
12:53 PM,55.9,24.1,29,29.94,10.0,SSW,21.9,29.9,N/A,,Clear,200,2012-12-05 18:53:00
1:53 PM,57.0,21.9,26,29.90,10.0,South,23.0,-,N/A,,Clear,190,2012-12-05 19:53:00
2:53 PM,57.9,21.9,25,29.88,10.0,South,20.7,29.9,N/A,,Clear,190,2012-12-05 20:53:00
3:53 PM,57.0,21.0,25,29.86,10.0,South,18.4,23.0,N/A,,Clear,190,2012-12-05 21:53:00
4:53 PM,55.9,21.9,27,29.84,10.0,South,16.1,26.5,N/A,,Clear,170,2012-12-05 22:53:00
5:53 PM,55.0,21.9,28,29.83,10.0,South,12.7,-,N/A,,Clear,170,2012-12-05 23:53:00
6:53 PM,54.0,21.9,29,29.83,10.0,SSE,9.2,18.4,N/A,,Clear,160,2012-12-06 00:53:00
7:53 PM,55.0,21.9,28,29.80,10.0,South,20.7,-,N/A,,Scattered Clouds,190,2012-12-06 01:53:00
8:53 PM,55.0,21.9,28,29.81,10.0,South,16.1,-,N/A,,Scattered Clouds,190,2012-12-06 02:53:00
9:53 PM,54.0,21.9,29,29.81,10.0,South,15.0,20.7,N/A,,Clear,180,2012-12-06 03:53:00
10:53 PM,53.1,21.9,30,29.79,10.0,SSE,11.5,-,N/A,,Clear,160,2012-12-06 04:53:00
11:53 PM,51.1,21.9,32,29.80,10.0,South,8.1,-,N/A,,Clear,180,2012-12-06 05:53:00